Voltar ao catálogo

SATCOM 1R

AtivoComunicaçõesGEO
NORAD 13984·PAYLOAD·🇺🇸 United States

Lançado Apr 11, 1983 de Cape Canaveral Space Force Station

Loading…

TLE

AtualizadoSource: Space-Track

Época: Sep 14, 2026, 11:20 UTC

1 13984U 83030A   26257.47278054 -.00000101  00000-0  00000-0 0  9991
2 13984  13.1310 337.8743 0006758 155.0783 204.6007  0.99862225131362

Acompanhe SATCOM 1R em tempo real com AllMySat

Download on the App Store